Weather in Lisakovsk

Kazakhstan     52°32′38″N   62°29′33″E
temp.,
°C
wind,
m/s
gust,
m/s
humid.,
%
clouds,
%
prec.,
mm/h
press.,
hPa
HPBL,
m
29 july, thu
thu2900:00+16nne48583 0.0 1012240
03:00+13n35690 0.0 101380
06:00+11n35660 0.0 101489
09:00+15nnw23530 0.0 1014317
12:00+19nnw44373 0.0 10141576
15:00+22nw44320 0.0 10131971
18:00+23nw45300 0.0 10122223
21:00+20wnw22420 0.0 101221
30 july, fri
fri3000:00+17ssw33450 0.0 101323
03:00+16sw464849 0.0 101388
06:00+15sw4105098 0.0 1013167
09:00+19sw61242100 0.0 1014433
12:00+20wsw61039100 0.0 1014444
15:00+20ssw61339100 0.0 1013448
18:00+24sw71232100 0.0 10111096
21:00+23ssw71433100 0.0 1009381
31 july, sat
sat3100:00+23ssw71737100 0.0 1008432
03:00+19wsw4106198 0.3 1008163
06:00+18w3467100 0.4 100957
09:00+22wnw346417 0.0 1011283
12:00+27nw464734 0.0 10111204
15:00+30wnw5737100 0.0 10102400
18:00+31wnw58325 0.0 10092678
21:00+27w334594 0.1 101034
1 august, sun
sun100:00+23wsw335346 0.1 101021
03:00+22w3560100 0.1 101068
06:00+20w466976 0.1 101093
09:00+24w355589 0.0 1010203
12:00+30w243767 0.0 1009980
15:00+34w71226100 0.0 10083702
18:00+31wnw8934100 0.0 10082140
21:00+23nw246975 0.9 101091
2 august, mon
mon200:00+22nnw33704 0.9 101132
03:00+20nw22745 0.0 101211
06:00+19wnw227190 0.0 101215
09:00+22wnw4652100 0.0 1013251
12:00+28nw463699 0.0 10131310
15:00+31nw57285 0.0 10132415
18:00+31nnw562626 0.0 10122563
21:00+27nne33382 0.0 101328